Temp
63 63 63 63 63 64 64 64 64 63 64 64 64 63 63 63 63 59 60 66 67 70 69 65 67 65 63 60 59 56 49 45 49 50 55 59 59 61 62 62 63 64 62 58 57
63 63 63 63 63 63 63 63 63 64 64 63 63 63 63 63 58 60 68 72 71 70 65 63 60 62 58 58 57 53 47 51 54 55 55 57 57 58 60 59 61 62 60 56 55
62 62 63 63 63 63 63 63 63 63 64 63 63 63 62 59 59 60 70 72 70 69 66 64 63 61 56 56 54 51 51 53 56 58 58 57 56 58 57 55 60 59 58 53 52
62 62 62 62 63 63 63 63 63 63 63 63 63 63 62 58 50 61 69 70 70 66 65 62 61 55 52 51 54 51 53 54 57 57 56 54 57 57 57 58 56 52 51 50 49
61 61 61 62 62 63 63 63 63 63 63 63 63 62 59 57 60 63 67 67 64 64 62 60 57 55 52 53 53 51 52 55 56 56 55 54 55 56 56 52 51 50 48 47 47
61 61 61 61 62 62 63 63 63 62 62 63 63 62 56 52 62 63 64 64 63 62 59 60 59 59 55 52 52 53 52 54 55 55 54 54 52 54 54 50 48 47 45 45 45
61 61 61 61 61 62 62 62 62 62 62 63 63 59 55 60 62 62 63 60 61 62 60 59 61 58 56 52 54 52 50 53 53 52 54 54 48 51 55 52 46 44 44 44 44
60 60 60 60 61 61 61 61 61 62 62 62 62 54 55 60 60 62 61 60 62 62 61 60 61 58 55 54 52 48 47 44 51 51 51 53 49 53 53 53 47 44 43 43 43
60 60 60 60 60 60 61 61 60 62 62 62 53 52 54 63 58 59 60 60 59 59 60 64 58 51 52 47 44 43 41 41 47 51 50 50 49 53 52 51 45 43 43 43 42
59 59 60 60 60 60 61 62 61 60 59 60 60 51 55 55 56 58 57 60 57 56 56 55 49 45 43 44 39 40 39 40 42 47 47 45 49 52 52 50 45 41 41 41 41
59 59 60 60 60 61 60 54 53 51 50 55 53 52 54 54 57 54 57 57 55 53 46 46 45 42 45 46 45 43 41 43 43 48 46 46 46 52 50 45 40 39 40 40 40
61 60 60 60 60 61 58 51 52 53 49 55 53 54 57 57 52 52 58 53 49 45 44 43 40 47 47 45 45 42 40 40 44 46 46 44 44 50 48 45 43 40 39 39 40
60 59 60 60 60 58 56 53 56 53 47 52 52 53 54 57 53 52 57 51 46 42 42 41 46 47 47 42 41 40 40 38 42 42 42 40 40 43 42 41 40 40 40 39 39
59 59 59 59 56 57 54 58 57 54 40 45 49 52 53 55 48 53 54 52 45 45 42 42 46 46 42 42 43 37 43 43 41 39 35 40 32 40 40 38 37 36 36 37 37
59 59 59 59 54 55 57 56 55 55 29 47 46 54 51 51 48 48 52 51 44 44 44 43 42 41 40 42 45 42 42 41 39 37 35 36 33 38 38 40 36 35 36 36 37
59 59 59 58 56 55 56 57 57 42 29 41 45 45 46 46 45 47 48 51 48 43 41 42 44 45 46 43 44 43 40 38 35 34 27 35 36 35 38 41 36 36 36 36 36
58 58 57 61 55 56 57 55 42 33 44 40 40 43 42 42 42 44 42 39 38 34 35 38 41 42 45 40 41 39 38 30 27 25 27 32 31 38 42 40 40 38 36 36 36
58 58 58 61 58 59 54 46 34 42 40 41 41 41 40 42 40 40 38 36 40 37 33 33 33 41 45 43 39 37 38 31 24 23 28 29 29 38 38 36 36 38 37 36 35
58 57 57 59 59 59 49 38 39 41 46 42 42 37 36 40 40 38 37 36 42 41 40 33 35 39 41 42 45 38 35 38 30 16 23 32 35 40 36 35 34 33 34 34 35
55 54 54 61 59 55 45 41 43 48 46 44 42 42 35 37 38 36 36 41 42 44 45 41 34 38 39 42 40 40 42 33 30 21 17 28 31 36 35 36 33 32 33 34 34
55 50 57 61 56 50 41 43 48 50 50 45 44 41 38 36 39 34 38 40 44 41 47 42 40 34 39 37 37 36 34 34 36 31 24 20 29 37 40 38 35 34 35 36 36
54 46 57 57 46 47 44 46 50 51 51 49 47 45 43 42 40 37 37 43 45 45 41 43 38 28 34 36 37 36 37 37 31 27 26 27 32 37 37 38 37 36 36 36 38
50 49 56 55 42 43 47 46 50 47 50 50 47 47 46 43 41 39 38 45 45 45 43 43 35 26 30 34 33 33 35 35 34 31 25 26 29 36 35 35 36 36 35 37 37
45 41 44 50 52 48 44 44 43 50 49 49 47 47 44 43 47 38 38 41 43 44 48 49 36 34 36 34 35 31 33 34 36 26 29 34 37 33 36 38 36 36 37 36 36
44 40 42 40 42 47 48 46 43 43 48 50 42 47 46 41 42 41 40 38 40 44 42 45 34 32 34 35 35 35 33 32 32 37 34 37 35 35 38 38 38 37 36 35 36
39 38 40 38 41 42 44 44 43 46 42 41 43 45 48 45 45 40 42 39 39 38 39 39 33 31 28 33 33 31 33 33 36 36 34 36 34 40 40 36 35 36 36 35 35
39 41 41 39 38 38 40 43 44 48 43 47 46 46 43 47 44 39 45 42 42 38 36 35 31 31 30 26 30 27 31 32 34 33 37 29 39 33 33 35 35 35 35 35 35
MSLP
1019.84 1019.73 1019.73 1019.71 1019.65 1019.66 1019.50 1019.42 1019.37 1019.27 1019.11 1018.93 1018.68 1018.42 1018.11 1017.73 1017.21 1017.18 1016.91 1016.60 1016.34 1016.26 1016.20 1016.24 1016.38 1016.74 1016.97 1018.08 1018.62 1019.21 1020.21 1020.88 1020.44 1020.12 1019.37 1019.06 1018.92 1018.83 1018.94 1019.05 1019.16 1019.49 1020.40 1021.70 1021.70
1019.77 1019.82 1019.80 1019.79 1019.69 1019.62 1019.59 1019.46 1019.33 1019.20 1019.03 1018.86 1018.49 1018.10 1017.85 1017.59 1017.37 1016.99 1016.68 1016.33 1016.19 1016.27 1016.37 1016.50 1016.87 1017.05 1017.85 1018.48 1018.96 1019.43 1020.35 1020.08 1019.67 1019.50 1019.34 1019.23 1019.12 1019.17 1019.38 1019.61 1019.79 1020.33 1021.18 1022.09 1022.20
1019.67 1019.82 1019.84 1019.83 1019.73 1019.60 1019.50 1019.41 1019.33 1019.16 1018.97 1018.68 1018.27 1017.95 1017.73 1017.58 1017.32 1016.93 1016.53 1016.31 1016.27 1016.27 1016.37 1016.65 1016.96 1017.33 1018.24 1018.63 1019.27 1019.51 1019.68 1019.56 1019.29 1019.23 1019.22 1019.29 1019.28 1019.32 1019.72 1020.35 1020.57 1021.29 1022.04 1022.75 1023.00
1019.50 1019.62 1019.68 1019.64 1019.65 1019.54 1019.45 1019.30 1019.26 1019.06 1018.73 1018.44 1018.10 1017.80 1017.50 1017.41 1017.51 1016.72 1016.48 1016.34 1016.38 1016.33 1016.51 1016.91 1017.31 1017.89 1018.59 1018.93 1019.15 1019.42 1019.46 1019.48 1019.26 1019.20 1019.35 1019.44 1019.51 1019.75 1020.19 1020.90 1021.38 1022.29 1023.04 1023.64 1023.82
1019.34 1019.39 1019.40 1019.48 1019.47 1019.45 1019.39 1019.21 1019.00 1018.76 1018.45 1018.27 1018.02 1017.73 1017.38 1017.50 1017.01 1016.56 1016.49 1016.40 1016.44 1016.50 1016.82 1017.15 1017.56 1018.09 1018.67 1018.97 1019.20 1019.38 1019.49 1019.49 1019.33 1019.34 1019.41 1019.53 1019.68 1019.93 1020.54 1021.44 1022.56 1023.36 1023.97 1024.41 1024.56
1019.03 1019.19 1019.23 1019.28 1019.34 1019.30 1019.23 1019.07 1018.85 1018.63 1018.40 1018.18 1018.04 1017.96 1017.90 1017.64 1016.59 1016.50 1016.58 1016.55 1016.66 1016.75 1017.09 1017.23 1017.58 1017.92 1018.67 1019.14 1019.33 1019.45 1019.57 1019.55 1019.21 1019.20 1019.31 1019.57 1019.86 1020.17 1020.86 1022.00 1023.15 1023.86 1024.54 1024.93 1025.06
1018.80 1018.94 1019.06 1019.08 1019.17 1019.10 1018.99 1018.92 1018.79 1018.59 1018.32 1018.10 1018.00 1018.06 1017.85 1017.08 1016.53 1016.51 1016.52 1016.83 1016.83 1016.87 1017.29 1017.45 1017.63 1017.99 1018.61 1019.38 1019.65 1019.77 1019.95 1019.75 1019.10 1019.17 1019.18 1019.34 1020.22 1020.07 1020.61 1021.94 1023.18 1024.01 1024.53 1024.95 1025.46
1018.50 1018.68 1018.84 1018.89 1018.96 1018.95 1018.82 1018.73 1018.64 1018.39 1018.32 1018.20 1018.10 1018.12 1017.41 1016.61 1016.59 1016.66 1016.76 1017.09 1017.16 1017.10 1017.30 1017.58 1017.70 1018.49 1019.11 1019.72 1020.28 1020.52 1020.59 1020.36 1019.29 1019.24 1019.18 1019.50 1019.61 1019.81 1020.49 1021.51 1023.09 1024.13 1025.11 1025.71 1026.01
1018.21 1018.36 1018.60 1018.71 1018.80 1018.88 1018.75 1018.57 1018.42 1018.36 1018.32 1018.30 1018.30 1018.01 1017.27 1016.69 1016.79 1016.81 1016.89 1017.22 1017.45 1017.68 1017.82 1017.85 1018.30 1019.62 1019.90 1020.46 1021.22 1021.51 1021.26 1020.93 1019.93 1019.40 1019.39 1019.64 1019.65 1019.86 1020.86 1021.96 1023.56 1024.66 1025.34 1025.87 1026.16
1017.86 1018.05 1018.22 1018.50 1018.63 1018.75 1018.64 1018.43 1018.30 1018.33 1018.41 1018.38 1018.29 1018.39 1017.11 1016.74 1016.80 1016.93 1017.05 1017.29 1017.79 1018.13 1018.42 1018.85 1019.79 1020.47 1021.00 1021.13 1021.43 1021.50 1021.62 1021.08 1020.46 1019.82 1019.72 1019.96 1019.80 1020.29 1020.95 1022.24 1023.69 1024.79 1025.52 1025.97 1026.33
1017.53 1017.75 1017.83 1018.12 1018.45 1018.57 1018.63 1018.59 1018.85 1018.71 1018.41 1017.28 1017.14 1016.91 1016.63 1016.92 1016.92 1017.15 1017.21 1017.48 1017.99 1018.70 1019.37 1019.95 1020.45 1020.47 1020.19 1020.30 1020.60 1020.97 1021.36 1020.99 1020.41 1020.02 1020.13 1020.11 1020.38 1019.92 1021.06 1022.28 1023.51 1024.70 1025.39 1025.94 1026.38
1016.99 1017.38 1017.63 1017.77 1018.16 1018.42 1018.60 1018.46 1017.86 1018.02 1017.60 1016.59 1016.75 1016.68 1016.38 1016.48 1017.07 1017.34 1017.27 1017.73 1018.33 1019.27 1019.92 1020.68 1020.29 1019.73 1020.17 1020.73 1020.99 1021.34 1021.61 1021.32 1020.85 1020.55 1020.73 1020.59 1020.79 1020.45 1021.08 1022.30 1023.35 1024.32 1025.29 1025.92 1026.52
1016.33 1016.88 1017.27 1017.57 1017.92 1018.35 1018.33 1017.94 1017.56 1017.66 1017.85 1016.37 1016.13 1016.06 1016.13 1016.41 1016.57 1017.07 1017.35 1017.84 1018.49 1019.52 1019.96 1020.05 1019.59 1019.55 1020.13 1020.81 1021.31 1021.55 1021.64 1021.64 1021.48 1021.28 1021.28 1021.43 1021.18 1020.68 1021.45 1022.54 1023.73 1025.09 1026.17 1026.89 1027.20
1015.68 1016.33 1016.92 1017.40 1018.15 1017.74 1017.75 1017.03 1017.53 1017.83 1017.93 1016.29 1015.85 1015.25 1015.69 1016.02 1016.90 1016.96 1017.11 1017.50 1018.62 1019.13 1020.13 1020.22 1019.45 1019.67 1020.15 1020.51 1020.83 1021.36 1021.09 1021.46 1021.87 1022.29 1022.41 1022.14 1021.96 1021.13 1021.66 1022.87 1024.22 1025.30 1026.40 1027.01 1027.35
1015.02 1015.69 1016.37 1016.73 1016.63 1017.05 1016.58 1016.64 1017.29 1017.94 1017.87 1015.22 1015.55 1015.57 1015.69 1016.23 1016.78 1017.33 1017.33 1017.41 1018.19 1019.03 1019.78 1019.30 1019.50 1019.73 1019.99 1019.87 1020.35 1020.67 1020.89 1021.61 1022.13 1022.74 1023.05 1022.91 1023.25 1021.49 1021.95 1022.72 1024.31 1025.58 1026.61 1027.08 1027.21
1014.20 1014.97 1015.72 1016.32 1016.36 1016.17 1016.32 1016.74 1017.29 1018.30 1015.97 1015.25 1015.39 1015.55 1016.16 1016.66 1017.16 1017.57 1017.57 1017.65 1018.21 1019.03 1019.40 1019.30 1019.17 1019.21 1019.06 1019.56 1019.87 1020.73 1021.30 1022.23 1023.00 1023.40 1023.58 1022.22 1022.52 1021.82 1021.78 1022.09 1023.54 1024.95 1026.26 1027.54 1028.30
1013.36 1014.06 1014.90 1015.02 1015.01 1015.76 1016.25 1016.72 1017.80 1016.30 1014.13 1014.94 1015.28 1015.66 1016.06 1016.72 1017.49 1017.50 1017.87 1018.23 1018.43 1019.31 1019.57 1019.35 1019.00 1018.72 1018.84 1019.76 1020.39 1020.65 1021.43 1022.83 1023.77 1024.00 1022.93 1022.31 1022.55 1020.47 1020.71 1021.59 1022.57 1023.71 1025.19 1026.44 1027.22
1012.55 1013.28 1013.71 1014.10 1014.75 1015.05 1016.23 1016.60 1015.80 1012.45 1013.54 1014.13 1014.58 1015.69 1016.34 1016.67 1017.34 1017.83 1018.00 1018.39 1018.24 1018.18 1018.94 1018.98 1018.85 1018.20 1018.18 1018.41 1019.23 1020.20 1020.52 1021.20 1022.19 1023.41 1022.92 1022.55 1021.61 1019.92 1020.17 1021.40 1022.71 1023.84 1024.84 1026.05 1026.88
1011.58 1012.29 1012.55 1013.13 1014.02 1014.22 1015.37 1014.58 1011.17 1011.21 1011.87 1013.36 1014.65 1015.27 1015.98 1016.30 1016.71 1017.71 1017.86 1017.49 1017.02 1017.05 1017.41 1017.92 1017.74 1017.55 1017.75 1017.95 1018.37 1019.93 1020.29 1020.30 1021.67 1023.68 1023.23 1021.36 1020.43 1019.82 1020.81 1021.74 1022.64 1023.75 1024.92 1025.72 1026.27
1010.04 1010.65 1010.59 1011.80 1012.97 1013.51 1013.42 1011.67 1010.69 1010.21 1011.00 1011.94 1012.61 1013.20 1014.30 1015.48 1016.33 1016.99 1017.12 1015.81 1015.84 1015.55 1015.55 1016.17 1017.22 1017.59 1017.81 1017.95 1018.58 1018.72 1019.15 1020.36 1021.52 1022.56 1022.51 1021.06 1020.52 1019.83 1020.70 1021.42 1022.61 1023.84 1024.48 1025.10 1025.65
1008.41 1008.64 1008.00 1010.22 1012.00 1011.17 1009.80 1009.02 1009.79 1009.81 1009.90 1010.82 1011.29 1011.98 1012.92 1013.93 1014.67 1015.42 1015.03 1014.85 1014.64 1015.09 1015.33 1015.87 1016.43 1018.16 1018.15 1017.89 1017.75 1018.94 1019.17 1019.75 1020.21 1021.01 1021.30 1021.16 1019.69 1018.89 1019.59 1020.36 1021.46 1022.53 1023.41 1024.11 1024.74
1006.17 1006.17 1006.64 1008.41 1009.26 1008.23 1008.14 1007.35 1008.55 1008.47 1009.54 1009.68 1010.00 1010.51 1011.34 1012.48 1013.38 1013.95 1013.90 1013.24 1013.01 1013.69 1015.01 1015.14 1016.09 1017.46 1017.48 1017.48 1017.53 1017.44 1017.79 1018.31 1019.46 1020.33 1020.55 1020.53 1018.76 1018.88 1019.30 1019.89 1020.56 1021.68 1022.63 1023.19 1024.01
1004.96 1005.14 1005.39 1005.92 1005.64 1006.09 1007.25 1007.46 1008.08 1008.21 1008.39 1008.89 1009.25 1009.37 1010.14 1011.02 1011.93 1011.96 1012.61 1012.37 1012.68 1012.85 1013.21 1014.25 1015.40 1017.10 1017.83 1018.14 1018.01 1017.80 1017.70 1017.91 1018.65 1019.10 1019.16 1020.07 1018.59 1018.82 1019.01 1019.77 1020.41 1021.23 1022.10 1022.73 1023.54
1004.34 1004.75 1004.77 1004.06 1004.28 1004.95 1005.92 1006.10 1006.90 1007.16 1007.71 1007.94 1008.00 1008.89 1009.52 1009.81 1010.15 1011.04 1011.98 1012.37 1012.40 1012.61 1012.56 1012.61 1013.96 1014.77 1014.80 1015.34 1015.90 1017.43 1017.43 1017.60 1017.86 1018.80 1018.50 1017.56 1017.77 1018.88 1019.16 1019.42 1020.16 1020.66 1021.24 1022.06 1022.70
1004.36 1004.80 1004.54 1004.04 1003.89 1003.81 1004.88 1005.13 1005.70 1006.08 1006.84 1007.21 1007.67 1007.11 1008.06 1008.87 1009.67 1010.16 1011.07 1012.37 1012.78 1012.82 1012.77 1012.46 1013.85 1014.75 1015.09 1015.17 1015.52 1015.80 1016.36 1017.16 1017.51 1017.55 1017.75 1016.98 1017.21 1017.73 1018.13 1018.74 1019.23 1019.83 1020.83 1021.70 1022.24
1005.37 1005.83 1005.77 1005.02 1004.42 1004.29 1003.93 1003.56 1004.13 1004.90 1005.91 1006.04 1006.30 1006.89 1007.43 1007.19 1007.40 1009.19 1010.04 1010.89 1011.59 1013.16 1012.83 1012.94 1013.98 1014.67 1015.66 1015.78 1016.29 1016.50 1016.01 1016.20 1016.79 1016.97 1016.91 1017.00 1016.58 1016.84 1017.41 1018.27 1019.19 1019.75 1020.65 1021.27 1021.83
1005.63 1006.09 1005.39 1005.17 1005.05 1005.09 1004.50 1004.05 1003.80 1004.74 1005.09 1005.06 1005.83 1007.06 1007.39 1006.98 1008.12 1009.11 1008.69 1009.54 1010.29 1011.69 1012.75 1013.50 1014.10 1014.95 1015.85 1016.69 1017.00 1016.96 1014.81 1015.74 1015.99 1015.89 1016.11 1016.94 1015.91 1017.27 1017.95 1018.50 1018.95 1019.70 1020.40 1020.65 1021.32
Wind_Speed
1 2 3 3 4 4 5 6 7 8 8 10 11 10 10 11 10 1 2 1 2 4 1 1 5 5 4 4 4 3 6 3 5 5 3 1 1 0 1 2 4 3 4 3 8
0 1 2 3 3 4 5 6 7 8 9 10 11 11 10 11 2 2 4 4 1 4 2 3 2 4 4 3 4 5 4 7 5 4 3 1 1 1 1 4 1 3 5 7 8
2 2 3 3 4 4 5 6 6 7 9 10 11 10 9 5 2 2 7 3 4 1 3 3 4 4 4 3 3 2 4 4 2 3 4 3 2 1 3 0 2 2 2 7 10
4 3 3 3 4 5 6 6 6 7 9 11 11 10 10 2 1 1 4 1 4 2 3 3 5 4 3 2 1 2 1 3 1 2 3 2 3 3 4 2 6 7 5 4 10
5 4 3 4 5 6 7 7 8 9 10 11 10 10 3 4 5 0 2 3 2 2 3 3 3 3 4 4 2 2 1 2 2 5 4 2 4 5 3 7 8 9 11 10 9
7 6 5 5 5 5 7 8 10 10 10 9 8 7 2 3 2 2 4 4 2 3 2 3 6 4 5 3 3 2 1 5 6 3 3 4 3 4 2 7 9 10 8 7 8
8 7 6 6 5 5 6 8 10 12 10 8 5 1 3 10 2 2 2 2 1 3 4 1 5 3 4 4 0 2 3 7 4 0 3 6 2 7 6 7 8 6 5 6 7
8 8 7 6 6 6 5 7 9 8 4 3 1 0 6 1 2 3 3 3 3 4 5 2 4 6 4 4 6 2 4 3 2 1 1 3 6 2 8 9 6 4 5 7 8
10 9 8 7 6 6 6 9 6 2 1 3 1 2 7 2 3 2 2 5 4 3 6 4 7 4 4 5 5 6 3 4 8 2 1 2 6 3 4 5 5 4 4 5 5
11 9 8 7 6 5 7 7 2 2 2 1 1 2 2 4 3 3 2 5 5 4 4 7 6 4 3 4 6 7 4 5 5 1 2 1 9 5 5 6 7 5 4 4 5
11 10 9 7 6 4 2 2 2 2 1 9 5 2 4 2 1 2 2 5 4 7 5 2 4 9 13 9 3 6 4 6 3 2 3 6 6 14 7 5 7 7 7 5 5
14 12 10 8 7 5 3 2 3 2 6 7 4 4 3 5 4 2 4 6 4 5 5 5 8 8 4 4 4 4 4 6 5 3 3 6 9 12 3 3 4 9 8 8 5
13 12 11 9 7 4 3 5 2 1 2 7 6 6 5 8 5 9 8 4 5 6 8 8 4 7 8 5 6 5 7 4 6 3 2 3 7 6 1 2 4 4 4 4 6
15 14 12 10 5 6 4 7 5 1 3 8 6 6 4 7 3 1 3 5 2 11 8 6 2 6 4 5 7 5 9 6 4 3 4 1 6 7 0 2 3 5 5 6 6
17 16 15 17 6 5 4 7 8 4 6 4 3 2 3 6 8 2 0 4 9 8 8 7 7 5 5 8 7 7 6 7 4 4 2 3 1 9 1 5 5 6 6 7 8
20 18 17 11 2 2 6 7 3 5 14 4 4 6 7 2 2 3 3 4 4 5 0 4 1 6 8 2 5 9 7 6 4 4 1 8 8 5 4 5 4 6 9 6 4
22 21 16 8 6 8 6 4 3 11 0 7 6 7 3 6 3 5 7 6 8 7 7 1 5 3 4 6 2 1 6 0 2 0 7 1 5 9 6 5 4 11 11 9 8
23 21 17 9 7 14 3 5 14 8 10 2 6 6 8 7 4 5 7 7 6 3 4 8 5 12 8 8 9 7 7 7 8 5 4 2 8 8 4 2 1 4 11 10 9
23 11 9 12 13 9 8 15 16 9 9 12 4 5 5 5 6 5 7 7 10 13 10 7 6 1 2 4 6 6 6 2 6 3 3 5 4 4 1 1 3 6 10 12 12
11 10 14 18 16 12 11 26 13 7 9 4 18 10 14 9 9 9 11 8 8 14 2 7 3 0 3 3 3 5 6 4 2 1 5 4 4 5 6 7 5 7 11 12 9
12 8 12 20 14 11 17 19 21 4 6 8 13 11 7 11 10 8 10 2 8 9 10 6 4 1 4 8 12 5 3 3 4 5 6 2 6 6 8 9 12 12 13 15 14
11 13 15 20 17 11 20 25 10 17 11 10 4 7 11 13 11 10 14 10 10 13 14 9 5 5 8 2 1 3 8 8 6 6 3 4 6 0 3 6 8 9 11 11 12
9 5 14 16 17 16 17 18 24 11 17 17 18 9 5 12 8 9 9 6 11 14 15 11 4 2 6 2 2 6 6 4 4 4 9 6 6 3 4 4 6 8 9 11 10
4 6 3 13 13 27 20 21 28 15 13 11 6 7 6 11 9 9 10 5 7 6 8 11 6 10 15 7 7 7 7 6 8 5 5 13 12 6 7 9 8 8 8 8 9
2 1 3 9 9 19 23 16 22 22 19 19 7 25 21 13 14 13 6 5 2 5 2 9 9 6 4 3 4 7 8 11 12 13 12 10 14 8 13 12 12 8 6 8 10
3 4 0 2 3 6 13 25 29 26 17 13 24 21 21 24 23 16 15 8 9 4 6 3 5 5 4 3 2 4 9 11 15 11 11 11 16 7 7 5 7 8 8 9 7
2 1 1 4 3 2 6 10 11 25 7 13 22 18 22 24 3 4 5 6 9 12 8 9 8 5 6 3 4 9 15 17 8 7 12 13 17 6 6 7 7 9 9 9 8
Wind_Direction
59 66 47 47 38 16 20 16 9 3 356 351 340 335 333 335 319 192 42 318 262 166 78 94 45 18 47 70 54 123 66 144 197 155 185 324 83 123 341 8 352 15 74 352 331
151 0 3 7 16 7 4 9 2 357 352 344 340 339 340 342 1 21 338 333 76 158 76 92 67 43 46 57 23 78 98 204 186 190 147 106 199 267 138 356 333 85 96 34 24
232 297 323 336 344 352 356 355 347 349 348 344 341 338 335 321 9 327 335 338 148 71 101 94 93 71 62 41 15 167 160 190 206 185 160 168 257 170 133 242 223 270 4 28 25
235 251 295 317 325 335 340 342 337 340 347 345 339 336 331 312 255 286 335 16 151 84 82 79 46 62 90 96 49 95 102 179 316 152 143 181 145 269 169 175 80 74 73 47 35
248 257 274 299 313 323 328 334 337 341 343 341 334 342 7 22 253 308 59 104 105 67 93 118 95 124 129 131 107 108 316 208 267 274 246 112 214 230 200 133 92 72 54 43 35
237 252 265 279 292 310 324 333 336 336 331 329 326 327 88 245 121 93 119 107 121 100 101 107 164 175 112 112 137 165 265 278 272 192 215 188 202 146 142 127 84 77 69 55 45
233 242 256 266 283 302 324 332 332 323 317 316 311 311 111 239 92 114 89 77 121 138 130 135 138 103 126 119 2 102 319 328 272 146 221 157 151 228 138 129 101 100 110 85 49
231 243 251 262 277 296 319 329 327 330 338 11 112 258 239 51 155 103 113 63 55 40 99 98 98 99 76 116 28 59 50 359 272 154 356 164 259 187 168 149 143 116 74 60 46
226 233 247 254 267 289 313 319 316 352 110 341 315 157 263 145 138 133 114 137 85 42 42 74 65 89 46 94 20 6 239 220 316 228 105 170 260 206 165 126 139 116 87 68 41
219 225 233 246 256 278 297 304 277 338 272 288 12 19 157 209 140 118 48 100 108 99 49 47 55 83 49 111 219 201 216 245 227 211 168 193 269 215 205 155 167 153 113 90 62
214 222 221 226 237 252 344 5 2 296 236 195 196 211 128 85 100 60 141 90 92 61 146 9 118 210 199 197 135 137 174 231 220 258 177 235 254 274 169 144 160 165 162 141 100
211 216 215 207 213 189 118 205 224 143 307 227 228 271 173 177 114 191 129 129 140 157 120 52 228 211 131 149 148 134 179 248 294 225 163 268 254 259 227 190 193 176 169 156 128
196 202 202 197 194 165 191 224 135 155 260 281 192 184 192 148 201 191 145 142 134 136 187 167 210 142 144 157 161 201 198 197 220 355 251 329 282 252 242 86 61 73 91 101 121
194 193 191 175 171 144 218 220 171 109 293 259 218 240 121 147 200 76 183 140 141 187 159 230 259 164 166 198 147 207 194 179 175 101 238 38 283 306 145 176 103 122 145 150 139
192 190 187 182 136 172 213 134 130 68 282 226 164 124 137 158 134 340 182 46 160 168 139 235 168 170 186 208 171 222 135 160 133 152 81 260 303 266 341 262 189 188 180 180 171
192 188 181 196 174 191 135 118 112 67 244 191 130 160 125 121 84 118 117 51 128 114 223 243 261 171 198 122 168 149 84 60 61 111 230 224 179 263 214 208 153 167 190 177 160
192 189 182 174 195 147 144 120 115 213 340 191 183 170 150 150 149 151 160 166 158 132 215 183 218 203 148 92 58 151 109 79 340 316 225 178 144 237 206 189 193 192 176 173 170
193 187 198 201 154 140 127 117 217 205 205 103 121 110 177 155 194 167 133 178 244 117 127 167 263 168 188 184 177 187 177 168 204 197 224 40 222 254 172 114 294 215 168 165 173
182 197 200 191 163 155 171 202 220 158 164 141 95 128 222 216 149 146 199 194 196 184 184 167 270 154 131 149 140 197 215 175 99 56 64 225 285 276 176 196 88 144 160 177 185
190 201 203 176 169 173 201 218 221 168 126 129 200 172 176 190 159 187 176 195 207 188 208 206 139 309 156 108 34 163 166 95 3 212 268 272 262 230 210 208 172 186 191 189 182
196 211 169 167 168 201 207 222 220 177 140 167 206 190 188 168 187 201 204 211 200 187 175 152 142 201 126 208 174 151 199 70 125 150 190 258 247 216 189 186 195 201 196 189 191
198 216 164 153 198 207 211 209 206 205 202 233 198 174 173 173 183 207 202 217 160 145 175 194 135 168 204 313 319 196 181 161 164 217 225 172 236 294 236 220 189 195 194 193 195
217 173 171 171 203 202 214 223 220 191 201 212 216 191 170 176 213 184 190 200 166 159 169 173 194 99 338 331 341 217 192 139 96 68 195 177 247 189 224 197 203 185 197 198 196
148 181 189 193 198 205 200 213 216 207 222 208 190 160 160 204 217 197 196 202 188 194 162 149 158 193 225 191 142 183 188 178 165 173 186 227 252 214 206 193 199 209 194 186 191
92 175 291 190 222 208 199 198 213 211 219 195 215 208 199 213 204 214 157 149 175 203 147 149 210 171 230 149 171 182 168 180 195 214 211 244 234 180 202 198 202 191 175 184 208
134 154 219 359 13 225 197 209 209 211 176 207 221 198 210 211 196 200 175 181 179 190 170 125 198 146 193 154 194 246 213 186 203 215 241 254 256 191 219 117 153 183 179 205 202
131 308 143 166 152 199 247 232 238 212 225 237 209 221 212 225 200 356 171 118 148 161 158 164 148 142 206 108 109 264 215 190 194 194 193 219 242 164 210 206 204 215 203 204 198